Hourly Data Report for September 26, 2017

All times are specified in Local Standard Time (LST). Add 1 hour to adjust for Daylight Saving Time where and when it is observed.

ARVIAT A
NUNAVUT

61°05'38.000" N
94°04'18.000" W
10.40 m
2300427
71174
YEK

Related Data

No related data is available for this station

Download Data

Hourly Data (September 2017)
Hourly Data Report for September 26, 2017
Temp Definition
°C
Dew Point Temp Definition
°C
Rel Hum Definition
%
Wind Dir Definition
10's deg

Wind Spd Definition
km/h
Visibility Definition
km
Stn Press Definition
kPa
Hmdx Definition


Wind Chill Definition


Weather Definition


TIME
00:00 Legend Double Dagger 4.8 3.5 91 17 24 16.1 101.89     LegendNANA
01:00 Legend Double Dagger 4.8 3.9 94 17 22 16.1 101.87     LegendNANA
02:00 Legend Double Dagger 4.6 3.9 95 18 17 16.1 101.85     LegendNANA
03:00 Legend Double Dagger 3.2 1.4 88 20 18 16.1 101.84     LegendNANA
04:00 Legend Double Dagger 3.5 1.7 88 20 18 16.1 101.81     LegendNANA
05:00 Legend Double Dagger 3.5 2.3 92 18 17 16.1 101.79     LegendNANA
06:00 Legend Double Dagger 4.1 3.1 93 17 18 16.1 101.77     LegendNANA
07:00 Legend Double Dagger 5.0 3.8 92 19 22 16.1 101.72     LegendNANA
08:00 Legend Double Dagger 4.4 3.4 93 19 22 16.1 101.68     LegendNANA
09:00 Legend Double Dagger 5.8 4.3 90 18 30 16.1 101.65     LegendNANA
10:00 Legend Double Dagger 6.8 4.6 86 19 28 16.1 101.63     LegendNANA
11:00 Legend Double Dagger 7.4 4.8 83 18 28 16.1 101.59     LegendNANA
12:00 Legend Double Dagger 8.0 5.3 83 18 32 16.1 101.54     LegendNANA
13:00 Legend Double Dagger 7.8 5.1 83 18 34 16.1 101.48     LegendNANA
14:00 Legend Double Dagger 7.6 4.9 83 17 35 16.1 101.45     LegendNANA
15:00 Legend Double Dagger 7.0 4.3 83 18 37 16.1 101.37     LegendNANA
16:00 Legend Double Dagger 6.7 4.3 85 LegendMM LegendMM LegendMM 101.34     LegendNANA
17:00 Legend Double Dagger 6.4 4.7 89 LegendMM LegendMM LegendMM 101.30     LegendNANA
18:00 Legend Double Dagger 6.0 4.8 92 17 30 16.1 101.25     LegendNANA
19:00 Legend Double Dagger 6.0 4.7 92 16 30 16.1 101.24     Rain
20:00 Legend Double Dagger 5.8 4.8 93 15 35 16.1 101.19     Rain
21:00 Legend Double Dagger 5.7 4.8 94 15 39 14.5 101.14     Rain
22:00 Legend Double Dagger 5.6 4.7 94 14 35 16.1 101.07     Rain
23:00 Legend Double Dagger 5.6 4.7 94 14 37 11.3 100.99     Rain

Notes on Data Quality.

Legend

  • E = Estimated
  • M = Missing
  • NA = Not Available
  • ‡ = Partner data that is not subject to review by the National Climate Archives
Date modified: